QPF
0.03 0.03 0.01 0.00 0.00 0.00 0.00 0.01 0.01 0.01 0.01 0.01 0.00 0.00 0.00 0.01 0.00 0.01 0.01 0.00 0.00 0.00 0.00 0.00 0.00 0.00 0.00 0.00 0.01 0.01 0.01 0.02 0.01 0.03 0.03 0.09 0.31 0.09 0.06 0.03 0.04 0.04 0.04 0.03 0.04 0.03 0.02 0.00 0.00 0.00 0.00 0.00 0.00 0.00
0.03 0.03 0.00 0.00 0.00 0.00 0.00 0.00 0.00 0.02 0.01 0.01 0.00 0.00 0.00 0.01 0.01 0.01 0.02 0.00 0.00 0.00 0.00 0.00 0.00 0.00 0.00 0.00 0.00 0.00 0.01 0.00 0.01 0.03 0.03 0.05 0.12 0.06 0.07 0.09 0.06 0.06 0.05 0.08 0.08 0.06 0.00 0.00 0.00 0.00 0.00 0.00 0.00 0.00
0.03 0.04 0.01 0.01 0.00 0.00 0.00 0.00 0.00 0.01 0.01 0.01 0.00 0.00 0.00 0.00 0.01 0.00 0.02 0.00 0.01 0.01 0.00 0.00 0.00 0.00 0.00 0.00 0.00 0.00 0.01 0.01 0.03 0.04 0.03 0.02 0.06 0.03 0.05 0.09 0.09 0.05 0.00 0.01 0.01 0.00 0.00 0.01 0.00 0.00 0.00 0.00 0.00 0.00
0.02 0.08 0.04 0.01 0.00 0.00 0.00 0.01 0.00 0.01 0.01 0.01 0.01 0.00 0.00 0.01 0.02 0.01 0.02 0.01 0.01 0.01 0.00 0.00 0.00 0.00 0.00 0.00 0.00 0.00 0.00 0.00 0.00 0.01 0.02 0.02 0.04 0.03 0.03 0.03 0.02 0.01 0.00 0.00 0.01 0.01 0.03 0.04 0.03 0.01 0.00 0.00 0.01 0.02
0.01 0.07 0.11 0.02 0.00 0.00 0.00 0.00 0.00 0.00 0.01 0.01 0.01 0.00 0.00 0.00 0.02 0.04 0.04 0.02 0.00 0.01 0.01 0.00 0.00 0.00 0.00 0.00 0.00 0.00 0.00 0.00 0.00 0.00 0.01 0.02 0.02 0.04 0.03 0.05 0.02 0.00 0.00 0.01 0.04 0.02 0.06 0.09 0.05 0.02 0.01 0.01 0.03 0.03
0.01 0.02 0.10 0.04 0.00 0.00 0.00 0.00 0.01 0.01 0.00 0.01 0.01 0.00 0.00 0.01 0.03 0.06 0.05 0.01 0.00 0.01 0.04 0.02 0.00 0.00 0.00 0.00 0.00 0.00 0.00 0.00 0.00 0.00 0.01 0.01 0.02 0.02 0.01 0.08 0.02 0.00 0.00 0.01 0.03 0.05 0.05 0.04 0.04 0.01 0.01 0.00 0.01 0.01
0.01 0.01 0.02 0.03 0.01 0.00 0.00 0.00 0.01 0.01 0.00 0.00 0.00 0.00 0.00 0.02 0.05 0.03 0.02 0.01 0.01 0.04 0.16 0.07 0.01 0.00 0.00 0.00 0.01 0.01 0.00 0.00 0.00 0.01 0.01 0.01 0.01 0.01 0.03 0.06 0.03 0.01 0.02 0.05 0.05 0.04 0.03 0.02 0.02 0.00 0.00 0.00 0.00 0.00
0.02 0.02 0.01 0.02 0.01 0.00 0.00 0.00 0.01 0.01 0.00 0.00 0.00 0.00 0.01 0.05 0.08 0.06 0.01 0.03 0.10 0.18 0.14 0.08 0.02 0.00 0.00 0.02 0.03 0.01 0.01 0.01 0.01 0.02 0.02 0.01 0.01 0.03 0.03 0.01 0.02 0.03 0.06 0.06 0.05 0.02 0.01 0.01 0.00 0.00 0.00 0.00 0.00 0.00
0.03 0.01 0.01 0.01 0.00 0.00 0.00 0.01 0.01 0.01 0.00 0.00 0.02 0.04 0.05 0.07 0.04 0.02 0.03 0.07 0.12 0.12 0.07 0.02 0.01 0.04 0.01 0.05 0.06 0.03 0.03 0.02 0.01 0.02 0.01 0.01 0.01 0.01 0.01 0.02 0.02 0.05 0.09 0.09 0.04 0.01 0.00 0.00 0.00 0.00 0.00 0.00 0.00 0.00
0.03 0.02 0.01 0.01 0.01 0.01 0.01 0.01 0.01 0.00 0.00 0.03 0.08 0.11 0.11 0.05 0.03 0.03 0.05 0.05 0.06 0.03 0.01 0.00 0.00 0.02 0.01 0.02 0.01 0.03 0.03 0.02 0.02 0.01 0.01 0.01 0.01 0.00 0.00 0.01 0.00 0.02 0.03 0.03 0.01 0.00 0.00 0.00 0.00 0.00 0.00 0.00 0.00 0.00
0.02 0.01 0.01 0.01 0.01 0.02 0.03 0.02 0.01 0.02 0.07 0.09 0.11 0.07 0.04 0.03 0.03 0.02 0.01 0.01 0.01 0.01 0.00 0.00 0.00 0.01 0.01 0.02 0.03 0.02 0.03 0.02 0.01 0.01 0.01 0.02 0.02 0.00 0.00 0.00 0.00 0.00 0.00 0.00 0.00 0.00 0.00 0.00 0.00 0.00 0.00 0.00 0.00 0.00
0.01 0.00 0.01 0.01 0.02 0.02 0.02 0.01 0.00 0.03 0.07 0.07 0.02 0.03 0.05 0.02 0.01 0.00 0.00 0.00 0.00 0.00 0.00 0.00 0.00 0.01 0.02 0.03 0.05 0.03 0.02 0.02 0.02 0.02 0.01 0.03 0.01 0.00 0.00 0.00 0.00 0.00 0.00 0.00 0.00 0.00 0.00 0.00 0.00 0.00 0.00 0.00 0.00 0.00
0.01 0.00 0.03 0.02 0.01 0.01 0.01 0.00 0.01 0.02 0.07 0.07 0.03 0.03 0.01 0.01 0.01 0.00 0.00 0.00 0.00 0.00 0.01 0.01 0.00 0.00 0.01 0.01 0.02 0.03 0.02 0.05 0.02 0.04 0.03 0.01 0.00 0.00 0.00 0.00 0.00 0.00 0.00 0.00 0.00 0.00 0.00 0.00 0.00 0.00 0.00 0.00 0.00 0.00
0.01 0.01 0.03 0.01 0.00 0.00 0.00 0.02 0.08 0.10 0.07 0.03 0.01 0.01 0.00 0.00 0.00 0.00 0.00 0.01 0.00 0.01 0.01 0.01 0.02 0.01 0.02 0.01 0.03 0.10 0.06 0.04 0.04 0.03 0.01 0.00 0.00 0.00 0.00 0.00 0.00 0.00 0.00 0.00 0.00 0.00 0.00 0.00 0.00 0.00 0.00 0.00 0.00 0.00
0.01 0.02 0.01 0.01 0.00 0.01 0.02 0.08 0.21 0.13 0.04 0.01 0.00 0.00 0.00 0.00 0.00 0.00 0.00 0.00 0.00 0.01 0.01 0.03 0.03 0.03 0.03 0.06 0.06 0.07 0.05 0.06 0.03 0.03 0.00 0.00 0.00 0.00 0.00 0.00 0.00 0.00 0.00 0.00 0.00 0.00 0.00 0.00 0.00 0.00 0.00 0.00 0.00 0.00
0.01 0.02 0.01 0.00 0.00 0.02 0.08 0.18 0.16 0.02 0.00 0.00 0.00 0.00 0.00 0.00 0.00 0.00 0.00 0.00 0.00 0.01 0.03 0.05 0.06 0.03 0.03 0.01 0.01 0.00 0.00 0.01 0.01 0.00 0.01 0.00 0.00 0.00 0.00 0.00 0.00 0.00 0.00 0.00 0.00 0.00 0.00 0.00 0.00 0.00 0.00 0.00 0.00 0.00
0.02 0.01 0.00 0.00 0.01 0.07 0.21 0.12 0.02 0.00 0.00 0.00 0.00 0.00 0.00 0.00 0.00 0.00 0.00 0.00 0.00 0.01 0.03 0.01 0.01 0.01 0.01 0.00 0.00 0.00 0.00 0.00 0.00 0.00 0.00 0.00 0.00 0.00 0.00 0.00 0.00 0.00 0.00 0.00 0.00 0.00 0.00 0.00 0.00 0.00 0.00 0.00 0.00 0.00
0.01 0.01 0.00 0.02 0.10 0.18 0.11 0.01 0.00 0.00 0.00 0.00 0.00 0.00 0.00 0.00 0.00 0.00 0.00 0.00 0.00 0.00 0.00 0.00 0.00 0.00 0.00 0.00 0.00 0.00 0.00 0.00 0.00 0.00 0.00 0.00 0.00 0.00 0.00 0.00 0.00 0.00 0.00 0.00 0.00 0.00 0.00 0.00 0.00 0.00 0.00 0.00 0.00 0.00
0.03 0.02 0.02 0.02 0.02 0.02 0.03 0.00 0.00 0.00 0.00 0.00 0.00 0.00 0.00 0.00 0.00 0.00 0.00 0.00 0.00 0.00 0.00 0.00 0.00 0.00 0.00 0.00 0.00 0.00 0.00 0.00 0.00 0.00 0.00 0.00 0.00 0.00 0.00 0.00 0.00 0.00 0.00 0.00 0.00 0.00 0.00 0.00 0.00 0.00 0.00 0.00 0.00 0.00
0.04 0.03 0.02 0.01 0.01 0.00 0.00 0.00 0.00 0.00 0.00 0.00 0.00 0.00 0.00 0.00 0.00 0.00 0.00 0.00 0.00 0.00 0.00 0.00 0.00 0.00 0.00 0.00 0.00 0.00 0.00 0.00 0.00 0.00 0.01 0.01 0.00 0.00 0.00 0.00 0.00 0.00 0.00 0.00 0.00 0.00 0.00 0.00 0.00 0.00 0.00 0.00 0.00 0.00
0.14 0.08 0.03 0.01 0.00 0.00 0.00 0.00 0.00 0.00 0.00 0.00 0.00 0.00 0.00 0.00 0.00 0.00 0.00 0.00 0.00 0.00 0.00 0.00 0.00 0.00 0.00 0.00 0.00 0.00 0.00 0.00 0.00 0.00 0.00 0.00 0.00 0.00 0.00 0.01 0.00 0.00 0.00 0.00 0.00 0.00 0.00 0.00 0.00 0.00 0.00 0.00 0.00 0.00
0.02 0.01 0.00 0.00 0.00 0.00 0.00 0.00 0.00 0.00 0.00 0.00 0.00 0.00 0.00 0.00 0.00 0.00 0.00 0.00 0.00 0.00 0.00 0.00 0.00 0.00 0.00 0.00 0.00 0.00 0.00 0.00 0.00 0.00 0.00 0.00 0.00 0.00 0.00 0.00 0.00 0.00 0.00 0.00 0.00 0.00 0.00 0.00 0.00 0.00 0.00 0.00 0.00 0.00
0.00 0.00 0.00 0.00 0.00 0.00 0.00 0.00 0.00 0.00 0.00 0.00 0.00 0.00 0.00 0.00 0.00 0.00 0.00 0.00 0.00 0.00 0.00 0.00 0.00 0.00 0.00 0.00 0.00 0.00 0.00 0.00 0.00 0.00 0.00 0.00 0.00 0.00 0.00 0.00 0.00 0.00 0.00 0.00 0.00 0.00 0.00 0.00 0.00 0.00 0.00 0.00 0.00 0.00
0.00 0.00 0.00 0.00 0.00 0.00 0.00 0.00 0.00 0.00 0.00 0.00 0.00 0.00 0.00 0.00 0.00 0.00 0.00 0.00 0.00 0.00 0.00 0.00 0.00 0.00 0.00 0.00 0.00 0.00 0.00 0.00 0.00 0.00 0.00 0.00 0.00 0.00 0.00 0.00 0.00 0.00 0.00 0.00 0.00 0.00 0.00 0.00 0.00 0.00 0.00 0.00 0.00 0.00
0.00 0.00 0.00 0.00 0.00 0.00 0.00 0.00 0.00 0.00 0.00 0.00 0.00 0.00 0.00 0.00 0.00 0.00 0.00 0.00 0.00 0.01 0.00 0.00 0.00 0.00 0.00 0.00 0.00 0.00 0.00 0.00 0.00 0.00 0.00 0.00 0.00 0.00 0.00 0.00 0.00 0.00 0.00 0.00 0.00 0.00 0.00 0.00 0.00 0.00 0.00 0.00 0.00 0.00
0.00 0.00 0.00 0.00 0.00 0.00 0.00 0.00 0.00 0.00 0.00 0.00 0.00 0.00 0.00 0.00 0.00 0.00 0.00 0.00 0.01 0.01 0.01 0.00 0.00 0.00 0.00 0.00 0.00 0.00 0.00 0.00 0.00 0.00 0.00 0.00 0.00 0.00 0.00 0.00 0.00 0.00 0.00 0.00 0.00 0.00 0.00 0.00 0.00 0.00 0.00 0.00 0.00 0.00
0.00 0.00 0.00 0.00 0.00 0.00 0.00 0.00 0.00 0.00 0.00 0.00 0.00 0.00 0.00 0.00 0.00 0.00 0.00 0.01 0.01 0.01 0.00 0.00 0.00 0.00 0.00 0.00 0.00 0.00 0.00 0.00 0.00 0.00 0.00 0.00 0.00 0.00 0.00 0.00 0.00 0.00 0.00 0.00 0.00 0.00 0.00 0.00 0.00 0.00 0.00 0.00 0.00 0.00
0.00 0.00 0.00 0.00 0.00 0.00 0.00 0.00 0.00 0.00 0.00 0.00 0.00 0.00 0.00 0.00 0.00 0.00 0.01 0.00 0.02 0.01 0.00 0.00 0.00 0.00 0.00 0.00 0.00 0.00 0.00 0.00 0.00 0.00 0.00 0.00 0.00 0.00 0.00 0.00 0.00 0.00 0.00 0.00 0.00 0.00 0.00 0.00 0.00 0.00 0.00 0.00 0.00 0.00
0.00 0.00 0.00 0.00 0.00 0.00 0.00 0.00 0.00 0.00 0.00 0.00 0.00 0.00 0.00 0.00 0.00 0.00 0.01 0.01 0.01 0.00 0.00 0.00 0.00 0.00 0.00 0.00 0.00 0.00 0.00 0.00 0.00 0.00 0.00 0.00 0.00 0.00 0.00 0.00 0.00 0.00 0.00 0.00 0.00 0.00 0.00 0.00 0.00 0.00 0.00 0.00 0.00 0.00
0.00 0.00 0.00 0.00 0.00 0.00 0.00 0.00 0.00 0.00 0.00 0.00 0.00 0.00 0.00 0.00 0.01 0.00 0.01 0.01 0.02 0.02 0.00 0.00 0.00 0.00 0.00 0.00 0.00 0.00 0.00 0.00 0.00 0.00 0.00 0.00 0.00 0.00 0.00 0.00 0.00 0.00 0.00 0.00 0.00 0.00 0.00 0.00 0.00 0.00 0.00 0.00 0.00 0.00
0.00 0.00 0.00 0.00 0.00 0.00 0.00 0.00 0.00 0.00 0.00 0.00 0.00 0.00 0.00 0.01 0.01 0.01 0.01 0.02 0.01 0.01 0.00 0.00 0.00 0.00 0.00 0.00 0.00 0.00 0.00 0.00 0.00 0.00 0.00 0.00 0.00 0.00 0.00 0.00 0.00 0.00 0.00 0.00 0.00 0.00 0.00 0.00 0.00 0.00 0.00 0.00 0.00 0.00
0.00 0.00 0.00 0.00 0.00 0.00 0.00 0.00 0.00 0.00 0.00 0.00 0.00 0.00 0.00 0.00 0.01 0.01 0.01 0.01 0.02 0.01 0.00 0.00 0.00 0.00 0.00 0.00 0.00 0.00 0.00 0.00 0.00 0.00 0.00 0.00 0.00 0.00 0.00 0.00 0.00 0.00 0.00 0.00 0.00 0.00 0.00 0.00 0.00 0.00 0.00 0.00 0.00 0.00
0.00 0.00 0.00 0.00 0.00 0.00 0.00 0.00 0.00 0.00 0.00 0.00 0.00 0.00 0.00 0.00 0.00 0.01 0.01 0.01 0.02 0.01 0.00 0.00 0.00 0.00 0.00 0.00 0.00 0.00 0.00 0.00 0.00 0.00 0.00 0.00 0.00 0.00 0.00 0.00 0.00 0.00 0.00 0.00 0.00 0.00 0.00 0.00 0.00 0.00 0.00 0.00 0.00 0.00
MSLP
1011.17 1011.80 1012.52 1013.01 1013.49 1013.98 1014.42 1014.95 1015.34 1015.79 1016.17 1016.57 1017.03 1017.38 1017.67 1017.97 1018.29 1018.20 1017.85 1017.88 1018.05 1017.84 1016.23 1016.32 1016.15 1015.78 1015.42 1015.39 1015.03 1014.84 1014.57 1014.58 1014.31 1013.73 1012.76 1012.38 1011.08 1008.23 1006.88 1005.76 1006.10 1006.47 1006.78 1006.94 1007.09 1007.12 1007.37 1007.85 1006.38 1007.64 1009.79 1009.59 1009.86 1010.60
1011.00 1011.58 1012.16 1012.74 1013.29 1013.80 1014.20 1014.74 1015.30 1015.68 1016.07 1016.58 1016.97 1017.30 1017.62 1017.99 1018.28 1018.63 1018.34 1018.13 1018.48 1018.53 1016.91 1016.78 1016.52 1016.37 1016.13 1015.82 1015.64 1015.36 1015.21 1015.29 1015.37 1015.06 1014.23 1013.52 1011.49 1009.50 1008.14 1006.97 1006.73 1007.66 1008.35 1007.93 1009.23 1010.16 1010.58 1010.87 1011.16 1011.84 1011.60 1011.68 1011.97 1012.50
1010.67 1011.24 1011.93 1012.51 1013.16 1013.71 1014.14 1014.55 1015.04 1015.58 1016.08 1016.48 1016.90 1017.29 1017.66 1017.95 1018.25 1018.50 1018.26 1018.55 1018.78 1018.29 1016.99 1015.99 1015.33 1015.31 1015.75 1016.11 1016.30 1016.18 1014.94 1015.13 1015.94 1016.71 1015.71 1014.13 1012.24 1010.75 1009.33 1008.76 1008.48 1008.86 1009.05 1009.45 1010.21 1012.16 1012.44 1012.76 1013.19 1013.56 1013.68 1013.71 1013.99 1014.27
1010.56 1011.07 1011.66 1012.35 1012.96 1013.48 1014.01 1014.47 1014.94 1015.39 1015.94 1016.40 1016.88 1017.34 1017.69 1018.01 1018.34 1018.68 1018.28 1018.40 1018.22 1017.86 1016.76 1015.15 1015.26 1015.23 1015.40 1015.55 1015.82 1016.15 1015.93 1015.76 1016.03 1015.82 1015.71 1014.68 1012.96 1011.57 1010.76 1010.51 1010.46 1011.09 1010.59 1011.44 1012.50 1013.23 1013.64 1014.35 1014.84 1014.92 1015.08 1015.27 1015.48 1015.66
1010.70 1011.11 1011.63 1012.18 1012.73 1013.31 1013.88 1014.40 1014.83 1015.37 1015.91 1016.38 1016.92 1017.29 1017.67 1018.05 1018.42 1018.66 1018.54 1018.38 1018.14 1018.03 1016.92 1015.72 1015.29 1014.60 1014.86 1015.21 1015.44 1015.79 1016.07 1016.19 1015.87 1015.87 1015.48 1014.30 1012.79 1012.51 1011.44 1011.11 1012.16 1013.17 1013.78 1013.65 1013.90 1014.46 1014.84 1015.73 1015.97 1016.10 1016.02 1016.06 1016.30 1016.43
1010.35 1010.88 1011.45 1011.96 1012.52 1013.18 1013.73 1014.29 1014.82 1015.26 1015.81 1016.38 1016.90 1017.27 1017.62 1017.97 1018.35 1018.56 1018.70 1018.45 1018.55 1018.62 1018.38 1016.39 1015.08 1014.86 1014.74 1014.95 1015.05 1015.28 1015.64 1016.20 1016.48 1016.04 1015.25 1013.90 1013.16 1012.71 1012.32 1012.50 1014.46 1015.04 1015.24 1015.58 1015.47 1015.87 1016.16 1016.65 1016.82 1017.00 1016.89 1017.04 1017.40 1017.47
1010.07 1010.62 1011.28 1011.92 1012.48 1013.08 1013.63 1014.16 1014.75 1015.31 1015.84 1016.36 1016.84 1017.25 1017.55 1017.86 1018.02 1018.16 1018.30 1018.36 1018.17 1019.33 1019.20 1017.14 1014.76 1014.27 1014.70 1014.67 1014.71 1014.83 1015.68 1016.07 1016.12 1015.43 1014.09 1013.66 1013.01 1012.99 1013.03 1013.83 1015.54 1016.22 1016.58 1016.77 1016.89 1016.59 1016.68 1017.00 1017.41 1017.53 1017.32 1017.52 1017.64 1017.91
1009.79 1010.32 1010.97 1011.67 1012.41 1013.00 1013.60 1014.13 1014.74 1015.26 1015.82 1016.39 1016.86 1017.18 1017.48 1017.72 1018.06 1018.02 1017.94 1018.41 1018.80 1019.47 1019.01 1017.09 1014.99 1014.51 1014.58 1014.23 1014.37 1014.72 1015.44 1015.78 1015.32 1014.37 1013.52 1013.22 1012.94 1013.01 1013.88 1015.79 1016.60 1017.19 1017.42 1017.49 1017.42 1017.22 1017.18 1017.57 1017.56 1017.56 1017.60 1017.69 1017.98 1018.57
1009.55 1010.14 1010.84 1011.52 1012.20 1012.91 1013.49 1014.12 1014.65 1015.21 1015.78 1016.32 1016.75 1017.12 1017.50 1017.76 1017.84 1017.54 1017.90 1018.38 1018.71 1018.84 1017.40 1016.07 1014.52 1013.82 1014.46 1014.15 1014.27 1014.80 1014.76 1014.38 1013.42 1013.28 1013.03 1013.13 1013.12 1014.08 1015.66 1016.59 1017.36 1017.90 1018.08 1018.04 1018.02 1017.81 1017.62 1017.70 1017.84 1018.01 1018.12 1018.35 1018.76 1019.55
1009.44 1010.00 1010.66 1011.30 1012.03 1012.72 1013.36 1014.01 1014.58 1015.13 1015.71 1016.24 1017.00 1017.23 1017.00 1017.09 1017.22 1017.77 1018.37 1018.43 1018.31 1017.51 1016.36 1014.92 1013.71 1013.52 1014.08 1014.15 1014.38 1014.25 1014.06 1013.42 1012.76 1012.34 1012.66 1013.23 1014.00 1016.15 1017.12 1017.70 1018.00 1018.33 1018.44 1018.31 1018.07 1018.09 1018.25 1018.41 1018.75 1019.15 1019.46 1019.68 1020.09 1020.83
1009.32 1009.98 1010.61 1011.27 1011.95 1012.54 1013.13 1013.83 1014.44 1015.10 1015.77 1016.46 1016.33 1016.28 1016.48 1016.86 1017.08 1016.64 1016.68 1016.62 1016.20 1015.51 1014.40 1013.78 1013.37 1013.11 1013.76 1013.76 1013.63 1013.68 1013.28 1012.90 1012.26 1011.80 1012.59 1013.07 1014.45 1016.57 1017.87 1018.34 1018.83 1018.96 1018.94 1019.01 1019.16 1019.34 1019.37 1019.37 1019.85 1020.40 1021.00 1021.45 1021.95 1022.62
1009.15 1009.88 1010.56 1011.16 1011.71 1012.37 1013.08 1013.72 1014.34 1015.09 1015.64 1015.68 1015.49 1016.18 1016.70 1016.55 1015.96 1015.81 1015.37 1015.02 1014.40 1013.31 1012.82 1012.92 1012.93 1012.87 1013.02 1013.16 1013.28 1013.27 1012.84 1012.79 1012.12 1012.28 1012.96 1013.22 1015.95 1017.46 1018.50 1019.28 1019.71 1019.94 1020.10 1020.32 1020.42 1020.66 1020.92 1021.20 1021.52 1022.00 1022.56 1023.20 1023.87 1024.53
1009.15 1009.81 1010.45 1011.09 1011.75 1012.45 1013.12 1013.69 1014.29 1014.70 1015.15 1015.19 1015.25 1015.51 1015.28 1015.53 1015.23 1014.64 1013.96 1013.66 1013.02 1012.79 1013.06 1013.27 1013.45 1013.23 1013.33 1013.26 1013.58 1013.37 1013.11 1012.40 1012.34 1012.51 1012.84 1015.10 1016.96 1018.24 1019.20 1019.96 1020.59 1021.04 1021.41 1021.75 1022.06 1022.29 1022.53 1022.85 1023.18 1023.60 1024.27 1024.79 1025.16 1025.64
1009.15 1009.76 1010.45 1011.17 1011.86 1012.48 1013.02 1013.63 1014.16 1014.83 1014.81 1014.25 1014.14 1014.60 1014.57 1014.42 1013.89 1013.04 1012.68 1012.61 1013.17 1013.23 1013.26 1013.49 1013.74 1013.59 1013.53 1013.96 1013.78 1013.23 1012.72 1012.59 1012.36 1012.78 1014.06 1016.10 1017.98 1019.27 1020.15 1020.84 1021.38 1022.17 1022.60 1022.88 1023.29 1023.68 1024.04 1024.38 1024.73 1025.16 1025.52 1025.85 1026.11 1026.51
1009.18 1009.88 1010.56 1011.24 1011.81 1012.42 1012.92 1013.71 1014.11 1014.90 1014.30 1013.58 1013.30 1013.47 1013.68 1013.66 1013.84 1013.73 1013.75 1013.60 1013.76 1014.12 1013.96 1013.96 1013.70 1013.72 1013.47 1013.58 1013.56 1013.32 1012.93 1012.63 1012.94 1014.16 1016.04 1017.84 1019.34 1020.54 1021.37 1022.02 1022.64 1023.13 1023.52 1023.82 1024.23 1024.62 1024.92 1025.22 1025.49 1025.86 1026.19 1026.54 1026.96 1027.30
1009.35 1010.19 1010.50 1011.08 1011.82 1012.43 1013.12 1013.87 1014.48 1014.10 1013.76 1013.58 1013.72 1013.93 1014.16 1014.06 1014.16 1014.26 1014.06 1014.06 1014.18 1014.20 1014.08 1013.80 1013.30 1013.10 1013.00 1013.01 1013.28 1013.07 1013.16 1013.45 1014.94 1016.48 1018.05 1019.38 1020.56 1021.50 1022.21 1022.83 1023.33 1023.68 1024.00 1024.41 1024.80 1025.10 1025.45 1025.70 1025.91 1026.41 1026.84 1027.15 1027.40 1027.64
1009.41 1009.18 1010.16 1011.09 1011.84 1012.69 1013.30 1013.86 1014.03 1013.73 1013.83 1014.00 1014.27 1014.64 1014.42 1014.34 1014.15 1014.33 1014.44 1014.39 1014.50 1014.15 1013.46 1013.02 1012.75 1012.56 1012.97 1012.95 1013.21 1013.66 1014.42 1015.68 1017.01 1018.24 1019.23 1020.31 1021.36 1022.34 1023.08 1023.58 1023.94 1024.14 1024.38 1024.72 1025.08 1025.41 1025.78 1026.18 1026.52 1026.47 1026.62 1027.10 1027.24 1027.66
1008.77 1009.43 1010.20 1011.12 1012.03 1013.04 1013.54 1013.62 1013.27 1013.35 1013.88 1014.32 1014.32 1014.80 1015.07 1015.18 1014.89 1014.95 1014.87 1014.69 1014.45 1013.78 1013.26 1012.75 1012.70 1012.88 1012.94 1013.14 1013.56 1015.18 1016.53 1017.52 1018.42 1019.31 1020.32 1021.36 1022.28 1022.94 1023.33 1023.74 1024.14 1024.42 1024.75 1025.08 1025.42 1025.79 1026.02 1026.02 1025.76 1025.72 1026.18 1026.61 1026.96 1027.28
1008.80 1009.55 1010.52 1011.34 1012.09 1012.22 1012.89 1013.27 1012.90 1013.13 1014.12 1014.56 1014.94 1015.27 1015.36 1015.53 1015.60 1015.50 1015.22 1014.88 1014.38 1013.93 1013.50 1013.16 1013.22 1013.04 1013.60 1014.59 1015.15 1016.24 1017.30 1018.11 1019.06 1020.15 1021.27 1022.09 1022.66 1023.17 1023.66 1024.10 1024.44 1024.68 1024.92 1025.16 1025.23 1025.17 1025.35 1025.68 1025.47 1025.40 1025.62 1025.96 1025.91 1026.14
1009.38 1010.16 1010.80 1011.74 1011.85 1011.58 1012.23 1012.96 1012.80 1013.05 1013.68 1014.39 1014.88 1015.11 1015.28 1015.41 1015.69 1015.67 1015.26 1014.74 1014.36 1014.11 1013.86 1013.85 1014.32 1015.14 1015.40 1016.12 1016.21 1016.94 1017.70 1018.50 1019.47 1020.44 1021.50 1022.44 1023.13 1023.54 1023.84 1024.02 1024.17 1024.60 1024.78 1025.05 1025.25 1025.38 1025.41 1025.48 1025.80 1026.00 1026.15 1026.07 1026.13 1026.07
1009.16 1010.65 1011.48 1011.36 1011.65 1011.66 1012.14 1012.44 1012.79 1013.22 1013.98 1014.08 1014.83 1014.86 1015.12 1015.35 1015.34 1015.35 1015.12 1015.06 1014.71 1014.51 1014.69 1015.50 1016.01 1017.01 1017.34 1017.36 1017.46 1017.90 1018.54 1018.94 1019.41 1020.03 1021.07 1022.14 1022.90 1023.19 1023.50 1023.75 1024.22 1024.33 1024.53 1024.78 1024.97 1025.50 1025.76 1025.59 1026.02 1026.45 1026.70 1026.83 1027.05 1027.05
1009.94 1010.64 1010.63 1011.00 1011.40 1012.20 1012.51 1012.72 1012.72 1013.36 1013.83 1014.10 1014.52 1014.48 1014.67 1014.96 1015.09 1015.24 1015.42 1015.09 1015.19 1015.80 1016.14 1016.27 1016.87 1017.64 1018.09 1018.33 1018.46 1018.70 1019.29 1019.60 1019.92 1020.56 1021.34 1022.19 1022.58 1023.10 1023.50 1023.88 1024.08 1024.35 1024.57 1024.90 1025.03 1025.47 1025.77 1026.23 1026.70 1026.94 1027.07 1027.25 1027.64 1027.27
1009.50 1009.68 1010.19 1010.80 1011.72 1012.71 1013.56 1013.25 1013.13 1013.36 1013.57 1013.91 1014.28 1014.29 1014.63 1014.89 1015.09 1015.63 1015.24 1015.36 1016.10 1017.05 1017.06 1017.22 1017.63 1017.78 1018.56 1019.10 1019.48 1019.81 1020.04 1020.04 1020.40 1021.09 1021.72 1022.16 1022.63 1023.12 1023.61 1023.98 1024.30 1024.54 1024.75 1025.09 1025.53 1025.81 1026.15 1027.00 1027.22 1027.29 1027.39 1027.59 1027.39 1027.34
1009.62 1010.32 1011.01 1011.41 1011.91 1013.08 1013.60 1013.22 1013.13 1013.28 1013.53 1013.71 1013.81 1014.15 1014.54 1014.73 1015.40 1015.29 1014.90 1015.36 1016.66 1017.48 1017.66 1018.09 1018.20 1018.67 1019.21 1019.62 1019.77 1020.16 1020.30 1020.43 1021.08 1021.76 1022.13 1022.48 1022.96 1023.44 1023.88 1024.23 1024.66 1024.96 1025.18 1025.40 1025.94 1026.33 1026.76 1027.00 1027.62 1027.40 1027.54 1027.65 1027.49 1027.72
1010.24 1012.14 1012.12 1012.42 1012.68 1012.93 1013.01 1013.07 1013.16 1013.18 1013.30 1013.61 1013.89 1014.09 1014.50 1015.14 1014.99 1014.89 1014.88 1015.71 1016.89 1017.48 1017.97 1018.12 1018.30 1018.47 1018.82 1019.33 1020.13 1020.93 1021.16 1021.14 1021.46 1022.13 1022.62 1022.78 1023.24 1023.93 1024.39 1024.89 1025.39 1025.84 1026.14 1026.14 1026.34 1026.62 1026.82 1027.38 1027.57 1027.65 1027.63 1027.66 1027.69 1027.83
1011.21 1012.64 1012.77 1012.40 1012.66 1012.63 1012.63 1012.74 1012.96 1013.09 1013.33 1013.63 1013.87 1014.25 1014.79 1014.87 1015.01 1014.80 1015.31 1016.19 1016.96 1017.58 1018.07 1018.19 1018.26 1018.64 1019.20 1019.76 1020.50 1021.19 1021.65 1021.82 1022.18 1022.78 1023.43 1023.63 1023.78 1023.99 1024.43 1025.02 1025.54 1026.19 1026.78 1026.88 1026.89 1026.93 1027.06 1027.46 1027.75 1027.88 1027.88 1027.83 1028.32 1028.51
1012.07 1012.81 1013.18 1013.60 1013.03 1012.96 1013.17 1013.28 1013.30 1013.38 1013.51 1013.48 1013.87 1014.57 1014.94 1015.04 1014.94 1016.04 1017.22 1017.52 1017.62 1018.10 1018.39 1018.62 1018.69 1018.91 1019.46 1020.49 1021.47 1022.20 1022.75 1023.03 1022.98 1023.59 1024.38 1024.82 1025.22 1025.36 1025.31 1025.61 1026.23 1027.00 1027.44 1027.75 1027.85 1027.86 1027.75 1027.82 1028.02 1028.19 1028.20 1028.18 1028.15 1028.44
1012.96 1013.18 1013.40 1013.91 1013.80 1013.91 1013.64 1013.59 1013.71 1013.72 1013.91 1014.15 1014.22 1014.71 1015.14 1015.66 1016.44 1017.72 1018.29 1018.85 1018.59 1018.84 1019.15 1019.40 1019.51 1019.81 1020.71 1021.71 1022.53 1023.17 1023.87 1024.44 1024.77 1025.04 1025.45 1025.89 1026.27 1026.67 1027.05 1027.49 1028.12 1028.57 1028.43 1028.73 1028.71 1028.70 1028.53 1028.47 1028.53 1028.57 1028.58 1028.60 1028.63 1028.78
1013.73 1014.05 1014.18 1014.65 1014.64 1014.69 1014.72 1014.62 1014.53 1015.20 1015.80 1015.31 1014.97 1015.68 1016.70 1017.96 1018.97 1019.13 1019.49 1019.56 1019.73 1019.90 1020.22 1020.67 1021.35 1021.79 1022.29 1022.83 1023.27 1023.63 1023.95 1024.24 1024.41 1024.82 1025.08 1025.57 1026.28 1027.14 1027.56 1027.93 1028.35 1028.42 1028.38 1028.95 1029.59 1029.27 1029.34 1029.24 1029.35 1029.53 1029.34 1029.13 1029.00 1029.02
1014.49 1014.69 1014.70 1015.18 1015.28 1015.30 1015.95 1016.38 1016.42 1017.08 1017.15 1017.02 1017.04 1017.69 1018.34 1019.24 1020.10 1020.45 1020.18 1020.07 1019.83 1019.82 1020.34 1020.98 1021.68 1022.06 1022.57 1023.05 1023.80 1024.53 1025.02 1025.13 1025.04 1024.97 1025.10 1025.60 1026.23 1027.42 1027.90 1028.24 1028.52 1028.80 1028.71 1028.82 1028.98 1029.08 1029.60 1029.39 1029.36 1029.44 1029.36 1029.03 1028.75 1028.68
1015.06 1015.10 1015.24 1015.47 1015.92 1016.60 1017.16 1017.70 1017.91 1017.89 1017.75 1017.72 1017.88 1017.56 1018.30 1019.43 1020.46 1020.86 1020.64 1020.53 1020.60 1020.86 1021.15 1021.52 1021.98 1022.42 1022.78 1023.40 1023.86 1024.50 1025.38 1026.28 1026.59 1026.55 1026.53 1026.91 1027.41 1027.86 1028.38 1028.76 1028.92 1028.98 1029.08 1029.20 1029.34 1029.35 1029.46 1029.36 1029.15 1029.19 1029.18 1029.21 1029.26 1029.34
1015.20 1015.19 1015.50 1015.84 1016.60 1017.68 1017.96 1017.53 1017.44 1017.36 1017.57 1017.58 1017.95 1018.50 1019.14 1019.12 1019.59 1020.76 1021.65 1021.34 1021.18 1021.18 1021.60 1022.00 1022.46 1023.02 1023.56 1024.30 1024.95 1025.42 1025.50 1026.55 1027.04 1027.30 1027.39 1027.68 1028.17 1028.73 1029.05 1029.40 1029.62 1029.48 1029.53 1029.63 1029.71 1029.74 1029.81 1029.74 1029.60 1029.54 1029.52 1029.49 1029.60 1029.71
1015.80 1015.84 1015.90 1016.18 1016.68 1017.06 1017.45 1017.27 1017.05 1017.33 1017.38 1017.37 1017.74 1018.05 1018.28 1018.63 1019.65 1021.14 1022.24 1022.19 1021.63 1021.62 1022.11 1022.85 1023.73 1024.46 1025.02 1025.42 1025.96 1026.51 1026.98 1027.62 1028.31 1028.64 1028.96 1029.14 1029.32 1029.42 1029.47 1029.61 1029.72 1029.85 1029.96 1029.99 1029.96 1030.04 1030.02 1030.01 1029.94 1029.97 1029.94 1030.03 1030.06 1030.07
Thickness
5335 5338 5339 5340 5342 5344 5345 5346 5348 5349 5351 5352 5353 5353 5354 5355 5354 5356 5358 5358 5356 5354 5374 5369 5369 5370 5373 5369 5364 5368 5371 5369 5376 5384 5399 5386 5381 5437 5452 5468 5462 5466 5470 5474 5480 5485 5485 5467 5493 5488 5451 5460 5462 5457
5329 5331 5333 5335 5337 5339 5341 5342 5343 5345 5346 5346 5347 5349 5349 5349 5348 5347 5348 5350 5347 5344 5361 5360 5361 5360 5360 5361 5360 5361 5362 5361 5365 5370 5384 5377 5394 5425 5439 5451 5463 5445 5438 5451 5448 5444 5430 5432 5432 5425 5436 5437 5438 5435
5323 5326 5328 5330 5331 5333 5335 5337 5339 5340 5340 5341 5342 5343 5343 5343 5343 5342 5345 5341 5339 5342 5355 5364 5369 5367 5361 5355 5352 5349 5366 5366 5357 5349 5360 5377 5390 5413 5422 5418 5438 5440 5446 5438 5443 5406 5406 5410 5412 5409 5412 5414 5413 5415
5316 5319 5322 5324 5326 5327 5329 5331 5333 5335 5335 5336 5336 5336 5337 5337 5336 5336 5339 5338 5340 5343 5349 5369 5364 5363 5361 5359 5355 5351 5353 5356 5358 5364 5361 5369 5385 5409 5412 5415 5417 5412 5430 5422 5406 5404 5406 5399 5395 5397 5397 5397 5397 5398
5306 5311 5314 5318 5320 5322 5324 5326 5328 5329 5330 5330 5330 5331 5331 5331 5330 5330 5332 5334 5335 5339 5346 5356 5362 5367 5363 5359 5356 5352 5349 5349 5357 5355 5358 5371 5396 5393 5411 5419 5404 5392 5380 5400 5409 5396 5395 5384 5382 5383 5386 5388 5388 5391
5300 5304 5308 5312 5314 5316 5318 5320 5321 5324 5324 5324 5325 5326 5326 5326 5326 5326 5324 5329 5327 5328 5330 5346 5360 5358 5359 5356 5357 5356 5353 5345 5344 5350 5359 5381 5390 5396 5401 5401 5376 5373 5376 5373 5381 5376 5374 5372 5373 5374 5376 5376 5372 5376
5293 5298 5302 5305 5307 5309 5312 5314 5315 5317 5318 5319 5319 5320 5321 5322 5324 5326 5332 5325 5327 5318 5317 5335 5359 5361 5353 5354 5355 5355 5347 5343 5346 5356 5375 5381 5391 5395 5399 5396 5367 5362 5360 5362 5364 5372 5375 5371 5368 5368 5374 5373 5374 5374
5288 5293 5296 5298 5300 5302 5305 5307 5308 5311 5312 5313 5314 5316 5318 5319 5319 5323 5323 5320 5319 5312 5314 5331 5350 5350 5347 5347 5347 5348 5341 5341 5351 5367 5380 5384 5394 5399 5391 5360 5358 5353 5352 5355 5359 5365 5368 5365 5369 5371 5372 5372 5371 5366
5282 5287 5289 5292 5294 5296 5298 5300 5302 5304 5307 5309 5310 5312 5314 5315 5318 5322 5319 5316 5315 5316 5328 5338 5348 5350 5341 5343 5344 5340 5348 5354 5376 5374 5381 5388 5393 5388 5364 5357 5349 5346 5348 5354 5355 5362 5369 5369 5369 5368 5368 5367 5364 5356
5277 5282 5285 5288 5291 5293 5294 5294 5297 5300 5303 5305 5306 5308 5316 5318 5317 5315 5313 5315 5315 5321 5330 5341 5359 5352 5347 5342 5340 5350 5358 5368 5374 5387 5388 5382 5387 5350 5348 5346 5348 5347 5346 5352 5361 5363 5362 5361 5359 5356 5354 5353 5350 5344
5274 5278 5283 5286 5289 5291 5293 5293 5295 5297 5299 5300 5309 5316 5316 5315 5315 5323 5325 5328 5332 5332 5346 5351 5357 5357 5353 5347 5354 5363 5368 5377 5382 5397 5389 5395 5385 5349 5342 5343 5342 5344 5348 5349 5350 5349 5350 5353 5348 5344 5337 5334 5331 5325
5274 5278 5281 5285 5289 5290 5291 5292 5295 5297 5299 5306 5314 5312 5311 5318 5328 5329 5335 5339 5343 5354 5361 5357 5358 5363 5362 5364 5365 5371 5377 5380 5384 5391 5387 5404 5355 5344 5339 5336 5335 5337 5338 5337 5338 5336 5335 5332 5330 5325 5319 5313 5306 5300
5273 5277 5281 5284 5287 5289 5290 5293 5295 5298 5301 5307 5312 5316 5326 5325 5326 5330 5336 5346 5356 5361 5356 5353 5350 5360 5363 5369 5363 5369 5367 5385 5389 5390 5400 5367 5348 5342 5338 5335 5330 5328 5326 5323 5320 5318 5316 5312 5309 5305 5297 5291 5288 5283
5273 5277 5280 5283 5285 5288 5291 5293 5296 5298 5306 5319 5325 5321 5329 5330 5340 5355 5363 5366 5353 5356 5359 5357 5352 5357 5362 5355 5359 5374 5383 5385 5397 5402 5394 5362 5343 5334 5330 5327 5324 5314 5311 5309 5305 5301 5296 5292 5288 5284 5280 5276 5273 5268
5273 5277 5280 5283 5287 5290 5293 5294 5298 5298 5311 5326 5339 5339 5336 5338 5333 5336 5338 5347 5348 5344 5349 5354 5359 5360 5365 5366 5366 5373 5383 5397 5404 5392 5361 5342 5330 5322 5317 5312 5306 5302 5300 5298 5293 5289 5285 5281 5277 5273 5268 5263 5257 5252
5274 5275 5282 5286 5289 5292 5294 5295 5297 5308 5317 5325 5325 5325 5324 5332 5333 5334 5343 5343 5346 5347 5350 5357 5366 5370 5372 5377 5374 5386 5397 5406 5373 5351 5335 5326 5318 5312 5307 5303 5299 5297 5294 5289 5285 5281 5276 5271 5268 5260 5253 5247 5242 5238
5278 5289 5289 5290 5291 5292 5295 5298 5303 5312 5316 5316 5317 5312 5322 5329 5339 5337 5339 5343 5344 5351 5366 5372 5373 5378 5375 5381 5382 5381 5380 5357 5339 5330 5326 5319 5311 5303 5297 5293 5291 5290 5288 5283 5278 5273 5267 5260 5253 5251 5247 5238 5234 5226
5291 5292 5294 5294 5293 5293 5296 5303 5314 5319 5313 5314 5321 5315 5315 5317 5330 5332 5336 5342 5347 5358 5367 5373 5378 5373 5379 5386 5389 5355 5336 5330 5327 5323 5317 5309 5301 5296 5295 5291 5287 5284 5279 5274 5269 5262 5256 5252 5252 5249 5239 5231 5223 5216
5297 5298 5297 5298 5301 5306 5307 5309 5320 5320 5311 5308 5308 5310 5314 5316 5320 5327 5334 5341 5350 5357 5364 5370 5369 5387 5378 5359 5353 5340 5332 5329 5323 5316 5306 5300 5297 5293 5288 5284 5279 5276 5271 5266 5263 5260 5254 5245 5243 5239 5232 5224 5220 5213
5301 5301 5303 5302 5307 5316 5314 5313 5321 5322 5321 5313 5312 5315 5319 5322 5322 5324 5335 5346 5352 5358 5362 5368 5365 5350 5350 5340 5344 5338 5334 5328 5319 5310 5302 5295 5289 5285 5282 5280 5278 5271 5266 5259 5253 5247 5242 5236 5227 5220 5213 5208 5202 5197
5310 5304 5303 5309 5313 5318 5318 5319 5318 5319 5312 5319 5313 5320 5321 5324 5328 5332 5338 5342 5349 5356 5356 5341 5337 5325 5326 5330 5333 5331 5325 5323 5320 5316 5306 5295 5289 5286 5282 5278 5270 5266 5260 5253 5246 5236 5227 5224 5213 5203 5194 5187 5178 5172
5311 5309 5315 5317 5317 5313 5314 5317 5322 5319 5319 5319 5319 5327 5328 5328 5331 5333 5335 5343 5346 5337 5335 5336 5330 5322 5322 5322 5323 5323 5317 5315 5313 5308 5301 5292 5287 5281 5275 5268 5263 5256 5249 5241 5235 5225 5216 5205 5194 5185 5178 5170 5158 5155
5319 5323 5322 5321 5313 5308 5303 5313 5316 5321 5321 5323 5325 5328 5327 5329 5331 5327 5338 5340 5331 5322 5326 5327 5325 5327 5318 5314 5312 5310 5309 5310 5307 5300 5293 5288 5282 5274 5267 5259 5252 5245 5237 5229 5219 5210 5201 5181 5176 5170 5162 5153 5146 5139
5321 5317 5314 5315 5320 5306 5307 5315 5324 5325 5326 5328 5332 5327 5326 5331 5325 5333 5345 5344 5323 5317 5319 5316 5319 5315 5312 5309 5310 5306 5305 5304 5296 5289 5285 5280 5272 5265 5257 5249 5240 5232 5224 5216 5205 5194 5183 5174 5158 5156 5147 5137 5129 5119
5327 5305 5312 5309 5313 5316 5318 5321 5322 5328 5327 5328 5327 5328 5327 5324 5333 5341 5345 5335 5319 5317 5314 5317 5317 5318 5316 5313 5305 5297 5295 5295 5291 5282 5276 5272 5264 5253 5244 5235 5226 5216 5206 5200 5191 5182 5173 5159 5149 5140 5132 5122 5114 5107
5320 5302 5314 5322 5320 5325 5329 5326 5326 5328 5329 5326 5329 5330 5325 5332 5334 5346 5342 5327 5320 5316 5312 5314 5316 5313 5310 5308 5300 5293 5288 5285 5280 5272 5263 5258 5253 5246 5238 5227 5218 5205 5192 5184 5177 5169 5160 5147 5136 5125 5116 5109 5095 5088
5315 5310 5307 5303 5318 5323 5321 5322 5329 5329 5326 5330 5330 5324 5327 5334 5348 5330 5311 5312 5315 5311 5310 5310 5311 5311 5307 5297 5287 5280 5273 5268 5268 5261 5249 5241 5232 5226 5222 5215 5206 5190 5177 5167 5159 5150 5143 5133 5121 5110 5103 5096 5090 5080
5306 5307 5310 5304 5306 5309 5316 5323 5324 5327 5327 5325 5331 5327 5332 5340 5335 5306 5302 5298 5303 5302 5301 5300 5301 5299 5291 5282 5273 5266 5258 5251 5246 5240 5233 5225 5216 5207 5198 5189 5178 5168 5160 5150 5143 5133 5125 5115 5106 5098 5090 5082 5075 5067
5296 5293 5296 5283 5292 5297 5302 5311 5316 5305 5297 5310 5327 5324 5310 5295 5287 5290 5289 5290 5290 5290 5288 5285 5279 5276 5272 5268 5263 5258 5254 5249 5245 5238 5234 5225 5211 5196 5186 5177 5167 5158 5149 5139 5126 5118 5108 5099 5090 5082 5075 5068 5062 5056
5281 5284 5288 5279 5285 5297 5288 5282 5286 5277 5280 5287 5291 5287 5286 5280 5276 5277 5281 5284 5288 5290 5285 5279 5273 5271 5266 5261 5252 5244 5239 5235 5233 5231 5225 5216 5204 5185 5174 5165 5155 5144 5136 5128 5119 5109 5094 5087 5080 5073 5066 5060 5056 5050
5273 5277 5278 5281 5278 5273 5268 5263 5264 5269 5275 5278 5279 5293 5289 5277 5271 5270 5274 5276 5277 5275 5274 5272 5268 5265 5261 5253 5248 5240 5230 5218 5210 5206 5201 5191 5181 5172 5161 5151 5142 5133 5124 5115 5105 5096 5085 5078 5072 5064 5058 5050 5042 5034
5270 5274 5270 5269 5265 5256 5258 5268 5273 5278 5277 5281 5278 5276 5273 5281 5283 5269 5261 5266 5269 5271 5267 5264 5260 5255 5248 5239 5231 5224 5221 5208 5199 5192 5185 5176 5166 5156 5146 5137 5128 5120 5111 5101 5092 5082 5072 5065 5059 5052 5045 5039 5031 5023
5256 5260 5263 5261 5259 5261 5261 5268 5275 5273 5277 5281 5280 5281 5284 5287 5281 5263 5252 5254 5261 5261 5258 5251 5242 5235 5228 5223 5216 5208 5202 5193 5183 5175 5167 5159 5150 5142 5134 5125 5116 5107 5098 5089 5080 5071 5063 5055 5048 5040 5033 5025 5018 5011